Retour au catalogue

INTELSAT 3R

PAS 3R

ActifCommunicationsGEO
NORAD 23764·PAYLOAD·🇺🇸 United States

Lancé Jan 12, 1996 depuis Guiana Space Centre

Loading…

TLE

FraisSource: Space-Track

Époque: Sep 14, 2026, 12:16 UTC

1 23764U 96002A   26257.51126198  .00000014  00000-0  00000-0 0  9999
2 23764  11.9112  36.0590 0010385 268.7560 270.1981  0.99087683111677

Suivez INTELSAT 3R en temps réel avec AllMySat

Download on the App Store